星链-35630(STARLINK-35630)

导读 | 豆包AI

STARLINK-35630是美国SpaceX公司星链(Starlink)低轨卫星互联网星座的一员,于2025年10月22日由美国发射升空。星链计划旨在构建全球覆盖的巨型低轨卫星互联网星座,为全球用户提供高速、低延迟的宽带互联网服务。该卫星属于星链星座的扩建部分,运行于近地轨道,设计寿命超过5年,将助力拓展星链全球网络覆盖范围,提升星座整体服务能力。

基本信息
目录编号:
66131
目录名称:
STARLINK-35630
国际标识:
2025-237T
轨道中心:
EARTH
卫星名称:
星链-35630
卫星全名:
星链-35630(STARLINK-35630)
卫星状态:
在轨 (已飞行215 天)
发射日期:
2025-10-22 UTC
国别 :
美国 (US)
星等 :
--
轨道信息
数据来源 国际轨道数据
星历时间: 2026-05-25T11:07:16+0800
9小时前
查看轨道信息
半长轴: 6853.5km
偏心率: 0.0001435
轨道倾角: 53.159°
近地点辐角 90.395°
升交点赤经 44.581°
平近点角 269.721°
近地点: 474.379km
远地点: 476.347km
周期: 94.108分钟
每日圈数: 15.301507
详细信息
固有亮度:
5
最大亮度:
2.5
卫星平台:
Starlink V1.0
覆盖范围:
全球
运营商:
太空探索技术公司
运营商所在国:
美国
制造商(研发单位):
太空探索技术公司
制造商所在国:
美国
使用方式:
暂无
卫星简介
Starlink 计划是 SpaceX 推出的全球卫星互联网项目,通过发射低轨道卫星,为全球尤其是偏远地区提供高速、低延迟的互联网服务。自 2019 年起,Starlink 已部署数千颗卫星,旨在缩小全球数字鸿沟,推动互联网普及。该项目还为军事、航空等行业提供通信支持,带来广泛经济效益。
2D轨道图
3D轨道图
轨道高度分析图
轨道倾角分析图
轨道综合分析图
查看轨道综合分析图